HYS1326 LRTR-LROP

Flight info

Callsign HYS1326
Flight time 0h 52m
Altitude 27000
Route DITAX3E DITAX DCT LAMIT DCT TOSVI TOSVI2U
Aircraft A320/M-SDE3FGHIRWY/LB1

Departure

Time 2026-04-21 13:38
Airport Timișoara Traian Vuia International Airport (LRTR)

Arrival

Time 2026-04-21 14:31
Airport Bucharest Henri Coandă International Airport (LROP)
Time Latitude Longitude Altitude Speed Heading
2026-04-21 13:27 45.81080 21.32082 349 ft 0 kts 200°
2026-04-21 13:27 45.81081 21.32082 349 ft 1 kts 200°
2026-04-21 13:27 45.81094 21.32089 351 ft 3 kts 190°
2026-04-21 13:27 45.81114 21.32090 352 ft 3 kts 166°
2026-04-21 13:28 45.81130 21.32080 347 ft 3 kts 128°
2026-04-21 13:28 45.81136 21.32066 344 ft 1 kts 110°
2026-04-21 13:28 45.81137 21.32062 343 ft 0 kts 110°
2026-04-21 13:30 45.81137 21.32063 343 ft 0 kts 110°
2026-04-21 13:31 45.81131 21.32088 347 ft 5 kts 110°
2026-04-21 13:31 45.81115 21.32149 342 ft 8 kts 109°
2026-04-21 13:31 45.81090 21.32248 344 ft 13 kts 109°
2026-04-21 13:31 45.81057 21.32383 342 ft 15 kts 109°
2026-04-21 13:32 45.81085 21.32477 345 ft 9 kts 54°
2026-04-21 13:32 45.81075 21.32577 345 ft 12 kts 110°
2026-04-21 13:32 45.81044 21.32699 342 ft 14 kts 109°
2026-04-21 13:32 45.81006 21.32848 346 ft 17 kts 110°
2026-04-21 13:33 45.80962 21.33025 346 ft 20 kts 109°
2026-04-21 13:33 45.80911 21.33228 342 ft 23 kts 110°
2026-04-21 13:33 45.80867 21.33405 349 ft 11 kts 107°
2026-04-21 13:33 45.80875 21.33499 350 ft 9 kts 54°
2026-04-21 13:34 45.80934 21.33549 343 ft 11 kts 19°
2026-04-21 13:34 45.81002 21.33603 349 ft 12 kts 49°
2026-04-21 13:34 45.80996 21.33726 347 ft 14 kts 107°
2026-04-21 13:34 45.80962 21.33870 349 ft 17 kts 109°
2026-04-21 13:35 45.80917 21.34045 345 ft 20 kts 110°
2026-04-21 13:35 45.80866 21.34251 336 ft 24 kts 110°
2026-04-21 13:35 45.80807 21.34488 337 ft 26 kts 109°
2026-04-21 13:35 45.80742 21.34743 342 ft 28 kts 109°
2026-04-21 13:36 45.80675 21.35013 351 ft 30 kts 110°
2026-04-21 13:36 45.80602 21.35301 348 ft 32 kts 110°
2026-04-21 13:36 45.80528 21.35596 345 ft 30 kts 110°
2026-04-21 13:36 45.80501 21.35790 342 ft 13 kts 78°
2026-04-21 13:37 45.80477 21.35876 347 ft 7 kts 202°
2026-04-21 13:37 45.80474 21.35806 347 ft 9 kts 296°
2026-04-21 13:37 45.80499 21.35712 349 ft 11 kts 290°
2026-04-21 13:37 45.80533 21.35577 346 ft 26 kts 289°
2026-04-21 13:38 45.80684 21.34974 345 ft 99 kts 290°
2026-04-21 13:38 45.80981 21.33791 353 ft 151 kts 289°
2026-04-21 13:38 45.81365 21.32261 735 ft 166 kts 290°
2026-04-21 13:38 45.81757 21.30682 1420 ft 169 kts 289°
2026-04-21 13:39 45.82155 21.29078 2112 ft 172 kts 290°
2026-04-21 13:39 45.82575 21.27411 2628 ft 186 kts 290°
2026-04-21 13:39 45.83043 21.25557 2931 ft 209 kts 290°
2026-04-21 13:39 45.83553 21.23523 3515 ft 221 kts 290°
2026-04-21 13:40 45.84073 21.21443 4398 ft 223 kts 290°
2026-04-21 13:40 45.84600 21.19334 5269 ft 226 kts 290°
2026-04-21 13:40 45.85135 21.17204 6134 ft 228 kts 290°
2026-04-21 13:40 45.85675 21.15047 6989 ft 231 kts 289°
2026-04-21 13:41 45.85974 21.12739 7594 ft 248 kts 264°
2026-04-21 13:41 45.85428 21.10295 8022 ft 271 kts 238°
2026-04-21 13:41 45.84066 21.08379 8702 ft 282 kts 208°
2026-04-21 13:41 45.82171 21.07691 9501 ft 287 kts 177°
2026-04-21 13:42 45.80264 21.08505 10251 ft 295 kts 148°
2026-04-21 13:42 45.78806 21.10681 10583 ft 316 kts 118°
2026-04-21 13:42 45.77905 21.13617 11181 ft 326 kts 110°
2026-04-21 13:42 45.77189 21.16724 11934 ft 331 kts 107°
2026-04-21 13:43 45.76543 21.19899 12692 ft 334 kts 106°
2026-04-21 13:43 45.75895 21.23120 13425 ft 338 kts 106°
2026-04-21 13:43 45.75214 21.26365 14148 ft 342 kts 107°
2026-04-21 13:43 45.74493 21.29629 14845 ft 346 kts 108°
2026-04-21 13:44 45.73738 21.32914 15511 ft 349 kts 108°
2026-04-21 13:44 45.72954 21.36223 16164 ft 353 kts 109°
2026-04-21 13:44 45.72154 21.39562 16800 ft 356 kts 109°
2026-04-21 13:44 45.71346 21.42933 17435 ft 360 kts 109°
2026-04-21 13:45 45.70532 21.46338 18057 ft 363 kts 109°
2026-04-21 13:45 45.69714 21.49773 18672 ft 367 kts 109°
2026-04-21 13:45 45.68888 21.53245 19280 ft 370 kts 109°
2026-04-21 13:45 45.68055 21.56749 19880 ft 374 kts 109°
2026-04-21 13:46 45.67214 21.60284 20473 ft 377 kts 109°
2026-04-21 13:46 45.66376 21.63800 21020 ft 380 kts 109°
2026-04-21 13:46 45.65517 21.67390 21549 ft 383 kts 109°
2026-04-21 13:46 45.64648 21.71014 22057 ft 387 kts 109°
2026-04-21 13:47 45.63773 21.74659 22556 ft 390 kts 109°
2026-04-21 13:47 45.62891 21.78336 23057 ft 393 kts 109°
2026-04-21 13:47 45.62003 21.82043 23560 ft 396 kts 109°
2026-04-21 13:47 45.61105 21.85772 24046 ft 399 kts 109°
2026-04-21 13:48 45.60196 21.89533 24516 ft 402 kts 109°
2026-04-21 13:48 45.59278 21.93317 24975 ft 405 kts 109°
2026-04-21 13:48 45.58355 21.97124 25424 ft 408 kts 109°
2026-04-21 13:48 45.57426 22.00960 25867 ft 410 kts 109°
2026-04-21 13:49 45.56487 22.04825 26301 ft 413 kts 109°
2026-04-21 13:49 45.55540 22.08706 26719 ft 416 kts 109°
2026-04-21 13:49 45.54583 22.12614 26961 ft 418 kts 109°
2026-04-21 13:49 45.53637 22.16476 27005 ft 407 kts 109°
2026-04-21 13:50 45.52710 22.20268 27010 ft 402 kts 109°
2026-04-21 13:50 45.51789 22.24025 27009 ft 401 kts 109°
2026-04-21 13:50 45.50869 22.27778 27011 ft 400 kts 109°
2026-04-21 13:50 45.49949 22.31522 27009 ft 400 kts 109°
2026-04-21 13:51 45.49027 22.35264 27010 ft 400 kts 109°
2026-04-21 13:51 45.48105 22.39005 27008 ft 401 kts 109°
2026-04-21 13:51 45.47177 22.42759 27008 ft 402 kts 109°
2026-04-21 13:51 45.46247 22.46511 27009 ft 402 kts 109°
2026-04-21 13:52 45.45313 22.50270 27006 ft 402 kts 109°
2026-04-21 13:52 45.44380 22.54027 26999 ft 403 kts 109°
2026-04-21 13:52 45.43444 22.57795 26995 ft 404 kts 109°
2026-04-21 13:52 45.42504 22.61567 26993 ft 405 kts 109°
2026-04-21 13:53 45.41557 22.65342 26991 ft 406 kts 109°
2026-04-21 13:53 45.40609 22.69126 26993 ft 406 kts 109°
2026-04-21 13:53 45.39658 22.72915 26991 ft 407 kts 109°
2026-04-21 13:53 45.38706 22.76704 27000 ft 407 kts 109°
2026-04-21 13:54 45.37753 22.80492 27012 ft 407 kts 109°
2026-04-21 13:54 45.36802 22.84280 27011 ft 407 kts 109°
2026-04-21 13:54 45.35851 22.88068 27002 ft 408 kts 109°
2026-04-21 13:54 45.34894 22.91867 26997 ft 408 kts 110°
2026-04-21 13:55 45.33933 22.95669 26997 ft 409 kts 110°
2026-04-21 13:55 45.32971 22.99472 27009 ft 409 kts 110°
2026-04-21 13:55 45.32005 23.03279 27022 ft 409 kts 110°
2026-04-21 13:55 45.31040 23.07073 27032 ft 408 kts 110°
2026-04-21 13:56 45.30074 23.10867 27034 ft 408 kts 110°
2026-04-21 13:56 45.29105 23.14647 27033 ft 407 kts 110°
2026-04-21 13:56 45.28134 23.18424 27031 ft 407 kts 110°
2026-04-21 13:56 45.27163 23.22201 27029 ft 407 kts 110°
2026-04-21 13:57 45.26195 23.25978 27031 ft 407 kts 110°
2026-04-21 13:57 45.25228 23.29754 27032 ft 407 kts 110°
2026-04-21 13:57 45.24258 23.33527 27031 ft 407 kts 110°
2026-04-21 13:57 45.23288 23.37292 27033 ft 406 kts 110°
2026-04-21 13:58 45.22320 23.41051 27034 ft 406 kts 110°
2026-04-21 13:58 45.21363 23.44755 27034 ft 405 kts 110°
2026-04-21 13:58 45.20395 23.48499 27031 ft 405 kts 110°
2026-04-21 13:58 45.19422 23.52245 27030 ft 404 kts 110°
2026-04-21 13:59 45.18449 23.55985 27031 ft 404 kts 110°
2026-04-21 13:59 45.17476 23.59720 27033 ft 404 kts 110°
2026-04-21 13:59 45.16504 23.63455 27033 ft 404 kts 110°
2026-04-21 13:59 45.15532 23.67185 27033 ft 403 kts 110°
2026-04-21 14:00 45.14560 23.70911 27032 ft 403 kts 110°
2026-04-21 14:00 45.13586 23.74631 27031 ft 403 kts 110°
2026-04-21 14:00 45.12611 23.78343 27029 ft 403 kts 110°
2026-04-21 14:00 45.11633 23.82061 27028 ft 402 kts 110°
2026-04-21 14:01 45.10654 23.85766 27027 ft 402 kts 110°
2026-04-21 14:01 45.09675 23.89477 27025 ft 402 kts 110°
2026-04-21 14:01 45.08700 23.93179 27024 ft 402 kts 110°
2026-04-21 14:01 45.07725 23.96887 27021 ft 402 kts 110°
2026-04-21 14:02 45.07068 23.99386 27020 ft 402 kts 110°
2026-04-21 14:02 45.05772 24.04289 27020 ft 402 kts 110°
2026-04-21 14:02 45.05108 24.06783 26928 ft 400 kts 110°
2026-04-21 14:03 45.03162 24.14071 26419 ft 393 kts 110°
2026-04-21 14:03 45.02200 24.17675 26191 ft 391 kts 110°
2026-04-21 14:03 45.01241 24.21263 25931 ft 389 kts 110°
2026-04-21 14:03 45.00286 24.24836 25678 ft 388 kts 110°
2026-04-21 14:04 44.99336 24.28390 25430 ft 386 kts 110°
2026-04-21 14:04 44.98388 24.31924 25180 ft 384 kts 111°
2026-04-21 14:04 44.97452 24.35402 24933 ft 383 kts 111°
2026-04-21 14:04 44.96507 24.38913 24683 ft 382 kts 111°
2026-04-21 14:05 44.95565 24.42409 24432 ft 380 kts 111°
2026-04-21 14:05 44.94625 24.45893 24183 ft 379 kts 111°
2026-04-21 14:05 44.93688 24.49366 23929 ft 378 kts 111°
2026-04-21 14:05 44.92755 24.52823 23682 ft 376 kts 111°
2026-04-21 14:06 44.91822 24.56273 23250 ft 377 kts 111°
2026-04-21 14:06 44.90894 24.59695 22574 ft 370 kts 111°
2026-04-21 14:06 44.89978 24.63066 21898 ft 366 kts 111°
2026-04-21 14:06 44.89072 24.66394 21222 ft 362 kts 111°
2026-04-21 14:07 44.88174 24.69688 20546 ft 358 kts 111°
2026-04-21 14:07 44.87284 24.72948 19866 ft 354 kts 111°
2026-04-21 14:07 44.86402 24.76173 19192 ft 351 kts 111°
2026-04-21 14:07 44.85527 24.79363 18513 ft 347 kts 111°
2026-04-21 14:08 44.84663 24.82512 17837 ft 343 kts 111°
2026-04-21 14:08 44.83807 24.85636 17161 ft 339 kts 111°
2026-04-21 14:08 44.82963 24.88718 16482 ft 336 kts 111°
2026-04-21 14:08 44.82124 24.91771 15801 ft 332 kts 111°
2026-04-21 14:09 44.81294 24.94783 15125 ft 328 kts 111°
2026-04-21 14:09 44.80472 24.97768 14452 ft 325 kts 111°
2026-04-21 14:09 44.79660 25.00713 13771 ft 321 kts 111°
2026-04-21 14:09 44.78852 25.03634 13087 ft 318 kts 111°
2026-04-21 14:10 44.78055 25.06517 12421 ft 315 kts 111°
2026-04-21 14:10 44.77262 25.09376 11743 ft 312 kts 111°
2026-04-21 14:10 44.76476 25.12205 11067 ft 309 kts 111°
2026-04-21 14:10 44.75702 25.15003 10389 ft 305 kts 110°
2026-04-21 14:11 44.75124 25.17844 9926 ft 296 kts 101°
2026-04-21 14:11 44.74717 25.20626 9804 ft 289 kts 102°
2026-04-21 14:11 44.74301 25.23397 9677 ft 289 kts 102°
2026-04-21 14:11 44.73881 25.26155 9552 ft 288 kts 102°
2026-04-21 14:12 44.73464 25.28872 9428 ft 288 kts 102°
2026-04-21 14:12 44.73043 25.31618 9303 ft 287 kts 102°
2026-04-21 14:12 44.72613 25.34398 9176 ft 287 kts 102°
2026-04-21 14:12 44.72191 25.37135 9054 ft 286 kts 102°
2026-04-21 14:13 44.71778 25.39828 8927 ft 286 kts 102°
2026-04-21 14:13 44.71382 25.42560 8802 ft 285 kts 98°
2026-04-21 14:13 44.71227 25.45335 8677 ft 285 kts 90°
2026-04-21 14:13 44.71368 25.48106 8552 ft 284 kts 83°
2026-04-21 14:14 44.71600 25.50861 8426 ft 284 kts 83°
2026-04-21 14:14 44.71826 25.53614 8301 ft 283 kts 83°
2026-04-21 14:14 44.72050 25.56360 8176 ft 283 kts 83°
2026-04-21 14:14 44.72271 25.59101 8048 ft 282 kts 83°
2026-04-21 14:15 44.72488 25.61839 7926 ft 282 kts 84°
2026-04-21 14:15 44.72702 25.64572 7801 ft 281 kts 84°
2026-04-21 14:15 44.72916 25.67300 7671 ft 280 kts 83°
2026-04-21 14:15 44.73131 25.70023 7550 ft 280 kts 84°
2026-04-21 14:16 44.73326 25.72744 7423 ft 279 kts 88°
2026-04-21 14:16 44.73037 25.75419 7298 ft 278 kts 110°
2026-04-21 14:16 44.72061 25.77742 7173 ft 277 kts 133°
2026-04-21 14:16 44.70537 25.79378 7046 ft 277 kts 155°
2026-04-21 14:17 44.68693 25.80079 6926 ft 276 kts 177°
2026-04-21 14:17 44.66796 25.79752 6792 ft 276 kts 199°
2026-04-21 14:17 44.65127 25.78453 6675 ft 276 kts 221°
2026-04-21 14:17 44.63927 25.76385 6549 ft 274 kts 243°
2026-04-21 14:18 44.63367 25.73846 6423 ft 274 kts 263°
2026-04-21 14:18 44.63163 25.71184 6300 ft 274 kts 264°
2026-04-21 14:18 44.62957 25.68531 6175 ft 273 kts 264°
2026-04-21 14:18 44.62747 25.65879 6050 ft 273 kts 264°
2026-04-21 14:19 44.62535 25.63234 5925 ft 273 kts 263°
2026-04-21 14:19 44.62323 25.60592 5800 ft 272 kts 263°
2026-04-21 14:19 44.62112 25.57962 5675 ft 272 kts 263°
2026-04-21 14:19 44.61900 25.55330 5551 ft 271 kts 263°
2026-04-21 14:20 44.61689 25.52702 5420 ft 270 kts 263°
2026-04-21 14:20 44.61172 25.50185 5296 ft 270 kts 242°
2026-04-21 14:20 44.59998 25.48157 5179 ft 269 kts 218°
2026-04-21 14:20 44.58355 25.46951 5045 ft 268 kts 195°
2026-04-21 14:21 44.56508 25.46735 4922 ft 268 kts 174°
2026-04-21 14:21 44.54697 25.47290 4796 ft 267 kts 156°
2026-04-21 14:21 44.53194 25.48784 4668 ft 267 kts 130°
2026-04-21 14:21 44.52311 25.51040 4551 ft 266 kts 104°
2026-04-21 14:22 44.52207 25.53607 4421 ft 266 kts 83°
2026-04-21 14:22 44.52415 25.56180 4298 ft 266 kts 83°
2026-04-21 14:22 44.52630 25.58752 4170 ft 265 kts 83°
2026-04-21 14:22 44.52842 25.61318 4045 ft 265 kts 83°
2026-04-21 14:23 44.53049 25.63882 3920 ft 265 kts 83°
2026-04-21 14:23 44.53252 25.66411 3789 ft 255 kts 83°
2026-04-21 14:23 44.53441 25.68789 3660 ft 236 kts 83°
2026-04-21 14:23 44.53645 25.70977 3531 ft 217 kts 77°
2026-04-21 14:24 44.53998 25.72947 3401 ft 200 kts 76°
2026-04-21 14:24 44.54322 25.74773 3272 ft 186 kts 76°
2026-04-21 14:24 44.54626 25.76488 3144 ft 178 kts 76°
2026-04-21 14:24 44.54921 25.78155 3047 ft 175 kts 76°
2026-04-21 14:25 44.55213 25.79806 2970 ft 174 kts 76°
2026-04-21 14:25 44.55493 25.81388 2980 ft 158 kts 76°
2026-04-21 14:25 44.55739 25.82816 2956 ft 144 kts 81°
2026-04-21 14:25 44.55822 25.84177 2958 ft 138 kts 85°
2026-04-21 14:26 44.55907 25.85483 2958 ft 135 kts 84°
2026-04-21 14:26 44.56001 25.86792 2948 ft 135 kts 84°
2026-04-21 14:26 44.56099 25.88098 2959 ft 135 kts 84°
2026-04-21 14:26 44.56199 25.89406 2892 ft 135 kts 84°
2026-04-21 14:27 44.56299 25.90703 2779 ft 132 kts 84°
2026-04-21 14:27 44.56397 25.91977 2611 ft 131 kts 84°
2026-04-21 14:27 44.56495 25.93239 2444 ft 130 kts 84°
2026-04-21 14:27 44.56592 25.94496 2276 ft 129 kts 84°
2026-04-21 14:28 44.56689 25.95742 2127 ft 126 kts 84°
2026-04-21 14:28 44.56783 25.96967 1941 ft 125 kts 84°
2026-04-21 14:28 44.56877 25.98179 1774 ft 125 kts 84°
2026-04-21 14:28 44.56971 25.99401 1617 ft 128 kts 84°
2026-04-21 14:29 44.57066 26.00639 1442 ft 128 kts 84°
2026-04-21 14:29 44.57162 26.01881 1268 ft 128 kts 84°
2026-04-21 14:29 44.57257 26.03122 1098 ft 128 kts 84°
2026-04-21 14:29 44.57352 26.04360 929 ft 128 kts 84°
2026-04-21 14:30 44.57445 26.05594 758 ft 127 kts 84°
2026-04-21 14:30 44.57534 26.06830 584 ft 127 kts 84°
2026-04-21 14:30 44.57627 26.08033 409 ft 127 kts 84°
2026-04-21 14:30 44.57725 26.09232 322 ft 113 kts 83°
2026-04-21 14:31 44.57788 26.10085 322 ft 63 kts 83°
2026-04-21 14:31 44.57815 26.10460 322 ft 14 kts 85°
2026-04-21 14:31 44.57817 26.10480 322 ft 1 kts 85°
2026-04-21 14:31 44.57823 26.10577 322 ft 19 kts 84°
2026-04-21 14:32 44.57831 26.10777 323 ft 22 kts 96°
2026-04-21 14:32 44.57802 26.10992 322 ft 20 kts 110°
2026-04-21 14:32 44.57756 26.11139 322 ft 11 kts 114°
2026-04-21 14:32 44.57716 26.11157 322 ft 5 kts 234°